sat.trackr.live / text

‹ back to catalog

STARLINK-5199

NORAD 54201 · 2022-141AW

PAYLOAD ACTIVE UNKNOWN

§ Identity

Operator
Country
US
Launch date
2022-10-28
Launch site
AFWTR
Launch vehicle
Mass (kg)
RCS (m²)

Purposes: comms

External: N2YO · Heavens-Above · Gunter

§ Orbital elements

Epoch: 2026-05-25T00:52:41.471040Z

Period
95.44 min
Inclination
53.2132°
Eccentricity
0.0001560
Mean motion
15.08842230 rev/d
Perigee alt
538.7 km
Apogee alt
540.8 km
Semi-major
6,917.9 km
B*
5.0092e-6
RAAN
11.3828°
Arg perigee
95.4812°
Mean anomaly
264.6358°
Rev number
19,752

§ Raw data

STARLINK-51991 54201U 22141AW  26145.03659110 -.00000208  00000+0  50092-5 0  99962 54201  53.2132  11.3828 0001560  95.4812 264.6358 15.08842230197525

JSON: /api/v1/satellites/54201 · /tle

For live sub-satellite position, see the globe view (requires WebGL).

§ Visibility from observer

Set your observer location to see the next 7 days of passes ≥ 10°. The values pass through the URL so the page stays shareable.

No JS? Fill the form by hand. The geolocation button needs JavaScript.